www.pogodaiklimat.ru
ПОГОДА в Тонопе
Время
(UTC), дата
02:56 18.02
03:56 18.02
04:56 18.02
05:56 18.02
06:56 18.02
07:56 19.02
08:56 19.02
09:56 19.02
10:56 19.02
11:56 19.02
12:56 19.02
13:56 19.02
14:56 19.02
15:56 19.02
16:56 19.02
17:56 19.02
18:56 19.02
19:56 19.02
20:56 19.02
21:56 19.02
22:56 19.02
23:56 19.02
00:56 19.02
01:56 19.02
02:56 19.02
03:56 19.02
04:56 19.02
05:56 19.02
06:56 19.02
07:56 20.02
08:56 20.02
09:56 20.02
10:56 20.02
11:56 20.02
12:56 20.02
13:56 20.02
14:56 20.02
15:56 20.02
16:56 20.02
17:56 20.02
18:56 20.02
19:56 20.02
20:56 20.02
21:56 20.02
22:56 20.02
23:56 20.02
00:56 20.02
01:56 20.02
Ветер
(напр.,м/с)
Видим. Явления Облачность Т
(С)
Тd
(С)
f
(%)
Тe
(С)
Тes
(С)
Комфортность P
(гПа)
Po
(гПа)
Тmin
(С)
Tmax
(С)
R
(мм)
R24
(мм)
S
(см)
С 3 16 км ясно -1.1 -15.6 32 -5 -5 1019.5 833.1
С 4 16 км ясно -1.1 -15.0 34 -6 -6 1019.6 833.6
С 4 16 км ясно -2.2 -14.4 39 -8 -8 1019.6 833.6 -2.8 +8.9
С 6 16 км ясно -2.2 -13.9 40 -9 -9 1019.4 833.9
С 4 16 км ясно -2.8 -13.3 44 -9 -9 1019.5 833.9
С 6 16 км ясно -2.8 -13.3 44 -10 -10 1019.1 834.2
С 3 16 км ясно -5.0 -13.9 50 -10 -10 1019.5 834.2
С 2 16 км ясно -5.6 -13.9 52 -10 -10 1019.2 834.2
СВ 3 16 км ясно -5.6 -14.4 50 -11 -11 1019.5 834.2 -6.1 -2.2
СЗ 2 16 км ясно -5.6 -13.3 55 -10 -10 1019.8 834.5
СЗ 3 16 км ясно -4.4 -13.3 50 -10 -10 1021.0 834.7
СВ 3 16 км ясно -5.6 -13.3 55 -11 -11 1022.4 835.3
0 16 км 8/0 3600 м
[средняя]
-2.2 -12.8 44 -3 -2 1023.3 836.1
С 3 16 км ясно +2.8 -11.7 33 -1 +1 1022.3 836.1
0 16 км 10/0 3600 м
[средняя]
+4.4 -12.2 29 +4 +6 1022.6 836.4 -6.1 +4.4
нст 2 16 км 2/0 3600 м
[средняя]
+6.7 -12.2 24 +5 +10 1022.2 836.7
З 4 16 км 2/0 3600 м
[средняя]
+8.3 -12.8 21 +6 +10 1021.5 836.1
З 6 16 км ясно +10.0 -13.3 18 +7 +10 1020.4 835.6
СЗ 4 16 км ясно +10.6 -13.9 16 +9 +13 1020.5 835.3
З 4 16 км ясно +11.1 -13.3 17 +9 +13 1020.4 835.3
СЗ 4 16 км ясно +10.6 -13.9 16 +9 +10 1020.7 835.6 +3.9 +11.1
СЗ 4 16 км ясно +9.4 -13.3 19 +7 +8 1021.0 835.6
С 3 16 км ясно +6.1 -14.4 21 +4 +4 1022.2 836.1
СЗ 3 16 км ясно +1.7 -14.4 29 -2 -2 1024.0 836.7
С 2 16 км ясно +0.6 -13.9 33 -3 -3 1024.3 837.2
С 4 16 км ясно +1.7 -12.8 33 -3 -3 1024.0 838.1
С 4 16 км ясно -0.6 -13.9 36 -5 -5 1024.6 838.3 -1.1 +11.1
С 6 16 км ясно 0.0 -13.3 36 -6 -6 1024.2 838.6
С 5 16 км ясно -1.1 -13.9 37 -7 -7 1024.6 838.9
С 6 16 км ясно -1.7 -14.4 37 -8 -8 1024.1 838.6
С 4 16 км ясно -2.2 -14.4 39 -8 -8 1024.1 838.6
С 5 16 км ясно -2.8 -13.9 42 -9 -9 1023.7 838.3
С 6 16 км ясно -2.2 -13.9 40 -9 -9 1024.0 838.6 -2.8 0.0
С 6 16 км ясно -3.3 -13.9 44 -10 -10 1024.8 838.9
СВ 3 16 км ясно -6.7 -15.0 52 -13 -13 1026.6 839.2
С 3 16 км ясно -5.6 -13.9 52 -11 -11 1027.9 839.7
СВ 3 16 км ясно -1.1 -13.3 39 -5 -5 1027.9 840.3
0 16 км ясно +2.2 -13.3 31 +2 +5 1027.2 840.6
0 16 км ясно +5.0 -13.9 24 +5 +11 1027.4 840.6 -6.7 +5.0
ЮВ 3 16 км ясно +7.8 -14.4 19 +6 +11 1026.3 840.3
Ю 4
{8}
16 км ясно +10.0 -15.6 15 +8 +13 1025.0 839.5
ЮВ 4 16 км ясно +11.1 -15.6 14 +9 +14 1023.7 838.6
Ю 5 16 км ясно +12.2 -15.6 13 +10 +13 1022.8 838.1
Ю 4 16 км ясно +12.8 -16.1 12 +12 +16 1022.2 837.5
Ю 5 16 км ясно +12.2 -15.6 13 +10 +12 1021.7 837.0 +5.0 +13.3
Ю 4 16 км ясно +11.7 -16.1 13 +10 +11 1022.0 837.0
Ю 3 16 км ясно +7.2 -16.1 17 +5 +5 1024.0 837.5
ЮВ 3 16 км ясно +5.0 -16.1 20 +2 +2 1024.8 837.8
Местоположение метеостанции Tonopah Airport: широта 38.0603 долгота -117.0872 высота над уровнем моря 1654 м.
В архиве по умолчанию представлена погода в Тонопе за последние 1-2 суток. Обновление информации о фактической погоде в базе происходит ежечасно! Архивные данные за месяц целиком и за предыдущие месяцы Вы можете получить, выбрав интересующий диапазон дат из раскрывающегося списка и нажав кнопку "Ввод!".
Внимание! Архив погоды МЕТАР в базе сайта по станциям, не включенным в климатический монитор, хранится не более 60 дней. Нет смысла пытаться выбрать более раннюю дату.
*Определитесь, кто Вы:
Внимание! Время в таблицах - всемирное. Для получения местного времени необходимо прибавить поправку, которая равна ч.
Смотрите также архив погоды в соседних городах и на ближайших метеорологических станциях:
Партнеры нашего сайта:      
Пояснения к столбцам:
  • Ветер - указаны скорость ветра в м/с - средняя за 10 мин, порывы в срок и между сроками (в фигурных скобках) и направление, откуда дует ветер: С - северный,
  • СВ - северо-восточный, В - восточный, ЮВ - юго-восточный, Ю - южный, ЮЗ - юго-западный, З - западный, СЗ - северо-западный.
  • Видимость - горизонтальная дальность видимости в метрах или километрах. При видимости от 1 до 10 км при отсутствии осадков обычно наблюдается дымка, при ухудшении видимости до 1 км и менее - туман. В сухую погоду видимость может ухудшаться дымом, пылью или мглою.
  • Явления - указаны атмосферные явления, наблюдавшиеся в срок или в последний час перед сроком; фигурными скобками обозначены явления, наблюдавшиеся между сроками (за 1-3 часа до срока); квадратными скобками обозначены град или гололедные отложения с указанием их диаметра в мм.
  • Облачность - указаны через наклонную черту общая и нижняя облачность в баллах и высота нижней границы облаков в метрах; квадратными скобками обозначены формы облаков: Ci - перистые, Cs - перисто-слоистые, Cc - перисто-кучевые, Ac - высококучевые, As - высокослоистые, Sc - слоисто-кучевые, Ns - слоисто-дождевые, Cu - кучевые, Cb - кучево-дождевые. Подробнее классификацию облаков см. в Атласе облаков (PDF).
  • T - Температура воздуха - температура, измеренная на высоте 2 м над землей.
  • Td - Температура точки росы - температура, при понижении до которой содержащийся в воздухе водяной пар достигнет насыщения.
  • f - Относительная влажность воздуха - влажноcть воздуха, измеренная на высоте 2 м над землей.
  • Te - Эффективная температура - температура, которую ощущает одетый по сезону человек в тени. Характеристика душности погоды. При расчете учитывается влияние влажности воздуха и скорости ветра на теплоощущения человека.
  • Tes - Эффективная температура на солнце - температура, которую ощущает человек, с поправкой на солнечный нагрев. Характеристика знойности погоды. Зависит от высоты солнца над горизонтом, облачности и скорости ветра. Ночью, в пасмурную погоду, а также при ветре 12 м/с и более поправка равна нулю.
  • P - Атмосферное давление - приведенное к уровню моря атмосферное давление.
  • Po - Атмосферное давление - измеренное на уровне метеостанции атмосферное давление.
  • Tmin - Минимальная температура - минимум температуры воздуха на высоте 2 м над землей.
  • Tmax - Максимальная температура - максимум температуры воздуха на высоте 2 м над землей.
  • R - Количество осадков - Количество выпавших осадков за период времени, мм. При наведении курсора мыши на число - период времени, за который выпало указанное количество осадков.
  • R24 - Количество осадков - Количество выпавших осадков за 24 часа, мм.
  • S - Снежный покров - Высота снежного покрова, см. При наведении курсора мыши на число - состояние снежного покрова и степень покрытия местности в баллах.